Year,Month,Day,Hour,Minute,Value (Times are PST for windspeed in km/hr)
2007,09,30,00,00,17.70
2007,09,30,00,01,24.10
2007,09,30,00,02,20.40
2007,09,30,00,03,13.80
2007,09,30,00,04,17.90
2007,09,30,00,05,23.50
2007,09,30,00,06,20.60
2007,09,30,00,07,20.20
2007,09,30,00,08,23.80
2007,09,30,00,09,17.30
2007,09,30,00,10,18.20
2007,09,30,00,11,18.50
2007,09,30,00,12,15.80
2007,09,30,00,13,18.50
2007,09,30,00,14,20.20
2007,09,30,00,15,18.90
2007,09,30,00,16,27.10
2007,09,30,00,17,25.90
2007,09,30,00,18,17.50
2007,09,30,00,19,24.00
2007,09,30,00,20,20.20
2007,09,30,00,21,20.20
2007,09,30,00,22,17.60
2007,09,30,00,23,27.70
2007,09,30,00,24,27.40
2007,09,30,00,25,29.00
2007,09,30,00,26,21.50
2007,09,30,00,27,20.10
2007,09,30,00,28,25.30
2007,09,30,00,29,26.90
2007,09,30,00,30,33.40
2007,09,30,00,31,23.10
2007,09,30,00,32,16.60
2007,09,30,00,33,20.40
2007,09,30,00,34,23.30
2007,09,30,00,35,17.50
2007,09,30,00,36,20.10
2007,09,30,00,37,20.40
2007,09,30,00,38,18.20
2007,09,30,00,39,16.80
2007,09,30,00,40,16.70
2007,09,30,00,41,26.00
2007,09,30,00,42,22.90
2007,09,30,00,43,13.20
2007,09,30,00,44,29.30
2007,09,30,00,45,19.00
2007,09,30,00,46,18.40
2007,09,30,00,47,25.20
2007,09,30,00,48,13.00
2007,09,30,00,49,18.30
2007,09,30,00,50,19.30
2007,09,30,00,51,18.40
2007,09,30,00,52,18.10
2007,09,30,00,53,14.60
2007,09,30,00,54,22.20
2007,09,30,00,55,23.50
2007,09,30,00,56,21.70
2007,09,30,00,57,25.20
2007,09,30,00,58,20.70
2007,09,30,00,59,20.70
2007,09,30,01,00,22.50
2007,09,30,01,01,20.20
2007,09,30,01,02,28.70
2007,09,30,01,03,24.40
2007,09,30,01,04,25.90
2007,09,30,01,05,26.30
2007,09,30,01,06,27.00
2007,09,30,01,07,18.70
2007,09,30,01,08,19.80
2007,09,30,01,09,20.50
2007,09,30,01,10,18.40
2007,09,30,01,11,18.20
2007,09,30,01,12,24.80
2007,09,30,01,13,16.70
2007,09,30,01,14,13.80
2007,09,30,01,15,23.90
2007,09,30,01,16,21.30
2007,09,30,01,17,17.00
2007,09,30,01,18,21.30
2007,09,30,01,19,25.40
2007,09,30,01,20,18.40
2007,09,30,01,21,19.50
2007,09,30,01,22,15.90
2007,09,30,01,23,20.70
2007,09,30,01,24,20.30
2007,09,30,01,25,22.20
2007,09,30,01,26,21.90
2007,09,30,01,27,20.40
2007,09,30,01,28,22.80
2007,09,30,01,29,25.40
2007,09,30,01,30,23.00
2007,09,30,01,31,25.60
2007,09,30,01,32,20.30
2007,09,30,01,33,25.50
2007,09,30,01,34,23.30
2007,09,30,01,35,16.60
2007,09,30,01,36,19.00
2007,09,30,01,37,15.30
2007,09,30,01,38,21.70
2007,09,30,01,39,21.40
2007,09,30,01,40,21.40
2007,09,30,01,41,20.40
2007,09,30,01,42,23.20
2007,09,30,01,43,19.80
2007,09,30,01,44,27.20
2007,09,30,01,45,20.50
2007,09,30,01,46,18.00
2007,09,30,01,47,22.80
2007,09,30,01,48,20.90
2007,09,30,01,49,20.40
2007,09,30,01,50,19.90
2007,09,30,01,51,22.70
2007,09,30,01,52,18.20
2007,09,30,01,53,19.60
2007,09,30,01,54,25.40
2007,09,30,01,55,18.60
2007,09,30,01,56,16.10
2007,09,30,01,57,20.50
2007,09,30,01,58,26.60
2007,09,30,01,59,23.50
2007,09,30,02,00,17.40
2007,09,30,02,01,18.70
2007,09,30,02,02,18.00
2007,09,30,02,03,15.50
2007,09,30,02,04,22.10
2007,09,30,02,05,21.00
2007,09,30,02,06,28.00
2007,09,30,02,07,22.20
2007,09,30,02,08,22.80
2007,09,30,02,09,22.90
2007,09,30,02,10,18.20
2007,09,30,02,11,17.90
2007,09,30,02,12,19.10
2007,09,30,02,13,21.50
2007,09,30,02,14,16.20
2007,09,30,02,15,13.20
2007,09,30,02,16,18.60
2007,09,30,02,17,23.70
2007,09,30,02,18,18.70
2007,09,30,02,19,22.90
2007,09,30,02,20,20.80
2007,09,30,02,21,17.90
2007,09,30,02,22,24.10
2007,09,30,02,23,15.50
2007,09,30,02,24,24.50
2007,09,30,02,25,22.60
2007,09,30,02,26,24.50
2007,09,30,02,27,19.00
2007,09,30,02,28,22.10
2007,09,30,02,29,21.00
2007,09,30,02,30,20.30
2007,09,30,02,31,19.70
2007,09,30,02,32,17.00
2007,09,30,02,33,21.30
2007,09,30,02,34,23.60
2007,09,30,02,35,18.30
2007,09,30,02,36,18.10
2007,09,30,02,37,18.10
2007,09,30,02,38,25.80
2007,09,30,02,39,27.40
2007,09,30,02,40,27.40
2007,09,30,02,41,21.10
2007,09,30,02,42,23.70
2007,09,30,02,43,21.30
2007,09,30,02,44,17.20
2007,09,30,02,45,18.20
2007,09,30,02,46,9.60
2007,09,30,02,47,17.30
2007,09,30,02,48,12.80
2007,09,30,02,49,15.30
2007,09,30,02,50,21.80
2007,09,30,02,51,20.20
2007,09,30,02,52,22.40
2007,09,30,02,53,20.20
2007,09,30,02,54,23.50
2007,09,30,02,55,21.40
2007,09,30,02,56,19.10
2007,09,30,02,57,12.90
2007,09,30,02,58,9.70
2007,09,30,02,59,12.30
2007,09,30,03,00,11.50
2007,09,30,03,01,6.40
2007,09,30,03,02,7.40
2007,09,30,03,03,17.50
2007,09,30,03,04,22.40
2007,09,30,03,05,18.90
2007,09,30,03,06,16.40
2007,09,30,03,07,14.50
2007,09,30,03,08,17.10
2007,09,30,03,09,18.20
2007,09,30,03,10,12.80
2007,09,30,03,11,17.90
2007,09,30,03,12,18.20
2007,09,30,03,13,15.10
2007,09,30,03,14,16.30
2007,09,30,03,15,18.50
2007,09,30,03,16,21.00
2007,09,30,03,17,13.70
2007,09,30,03,18,22.10
2007,09,30,03,19,26.60
2007,09,30,03,20,14.30
2007,09,30,03,21,17.40
2007,09,30,03,22,16.90
2007,09,30,03,23,11.00
2007,09,30,03,24,17.90
2007,09,30,03,25,22.90
2007,09,30,03,26,12.00
2007,09,30,03,27,9.50
2007,09,30,03,28,16.30
2007,09,30,03,29,16.00
2007,09,30,03,30,13.60
2007,09,30,03,31,9.70
2007,09,30,03,32,12.00
2007,09,30,03,33,11.90
2007,09,30,03,34,12.20
2007,09,30,03,35,9.60
2007,09,30,03,36,8.80
2007,09,30,03,37,15.20
2007,09,30,03,38,7.60
2007,09,30,03,39,8.60
2007,09,30,03,40,5.30
2007,09,30,03,41,7.50
2007,09,30,03,42,8.20
2007,09,30,03,43,13.00
2007,09,30,03,44,8.50
2007,09,30,03,45,9.80
2007,09,30,03,46,13.20
2007,09,30,03,47,8.10
2007,09,30,03,48,6.90
2007,09,30,03,49,8.50
2007,09,30,03,50,15.40
2007,09,30,03,51,13.30
2007,09,30,03,52,7.60
2007,09,30,03,53,13.50
2007,09,30,03,54,9.90
2007,09,30,03,55,6.10
2007,09,30,03,56,9.00
2007,09,30,03,57,12.60
2007,09,30,03,58,18.10
2007,09,30,03,59,11.40
2007,09,30,04,00,12.30
2007,09,30,04,01,7.40
2007,09,30,04,02,7.40
2007,09,30,04,03,7.60
2007,09,30,04,04,9.70
2007,09,30,04,05,12.00
2007,09,30,04,06,13.00
2007,09,30,04,07,8.90
2007,09,30,04,08,9.70
2007,09,30,04,09,10.90
2007,09,30,04,10,11.20
2007,09,30,04,11,6.60
2007,09,30,04,12,6.80
2007,09,30,04,13,8.80
2007,09,30,04,14,5.90
2007,09,30,04,15,5.80
2007,09,30,04,16,6.90
2007,09,30,04,17,12.70
2007,09,30,04,18,8.10
2007,09,30,04,19,13.70
2007,09,30,04,20,8.00
2007,09,30,04,21,4.70
2007,09,30,04,22,8.40
2007,09,30,04,23,8.70
2007,09,30,04,24,7.50
2007,09,30,04,25,8.50
2007,09,30,04,26,5.20
2007,09,30,04,27,7.40
2007,09,30,04,28,12.20
2007,09,30,04,29,14.60
2007,09,30,04,30,10.80
2007,09,30,04,31,7.90
2007,09,30,04,32,11.90
2007,09,30,04,33,9.50
2007,09,30,04,34,6.10
2007,09,30,04,35,12.50
2007,09,30,04,36,12.70
2007,09,30,04,37,12.40
2007,09,30,04,38,7.80
2007,09,30,04,39,8.10
2007,09,30,04,40,12.30
2007,09,30,04,41,7.50
2007,09,30,04,42,8.90
2007,09,30,04,43,7.60
2007,09,30,04,44,11.90
2007,09,30,04,45,15.30
2007,09,30,04,46,11.50
2007,09,30,04,47,7.80
2007,09,30,04,48,6.20
2007,09,30,04,49,9.30
2007,09,30,04,50,10.50
2007,09,30,04,51,6.80
2007,09,30,04,52,5.80
2007,09,30,04,53,12.30
2007,09,30,04,54,8.90
2007,09,30,04,55,10.20
2007,09,30,04,56,10.40
2007,09,30,04,57,15.00
2007,09,30,04,58,12.80
2007,09,30,04,59,10.20
2007,09,30,05,00,12.90
2007,09,30,05,01,11.10
2007,09,30,05,02,15.10
2007,09,30,05,03,16.70
2007,09,30,05,04,13.80
2007,09,30,05,05,7.00
2007,09,30,05,06,6.40
2007,09,30,05,07,11.80
2007,09,30,05,08,11.00
2007,09,30,05,09,11.30
2007,09,30,05,10,10.60
2007,09,30,05,11,15.90
2007,09,30,05,12,13.20
2007,09,30,05,13,16.80
2007,09,30,05,14,14.80
2007,09,30,05,15,12.20
2007,09,30,05,16,11.60
2007,09,30,05,17,10.80
2007,09,30,05,18,10.30
2007,09,30,05,19,10.50
2007,09,30,05,20,13.40
2007,09,30,05,21,13.60
2007,09,30,05,22,20.40
2007,09,30,05,23,15.40
2007,09,30,05,24,19.60
2007,09,30,05,25,13.70
2007,09,30,05,26,17.20
2007,09,30,05,27,23.60
2007,09,30,05,28,11.10
2007,09,30,05,29,18.10
2007,09,30,05,30,22.60
2007,09,30,05,31,22.10
2007,09,30,05,32,16.70
2007,09,30,05,33,17.80
2007,09,30,05,34,12.50
2007,09,30,05,35,15.70
2007,09,30,05,36,12.60
2007,09,30,05,37,12.50
2007,09,30,05,38,19.70
2007,09,30,05,39,15.10
2007,09,30,05,40,12.00
2007,09,30,05,41,15.20
2007,09,30,05,42,14.60
2007,09,30,05,43,11.20
2007,09,30,05,44,12.00
2007,09,30,05,45,14.50
2007,09,30,05,46,19.70
2007,09,30,05,47,10.80
2007,09,30,05,48,18.00
2007,09,30,05,49,21.10
2007,09,30,05,50,17.60
2007,09,30,05,51,10.50
2007,09,30,05,52,10.60
2007,09,30,05,53,12.20
2007,09,30,05,54,16.60
2007,09,30,05,55,10.30
2007,09,30,05,56,9.70
2007,09,30,05,57,19.80
2007,09,30,05,58,15.40
2007,09,30,05,59,17.10
2007,09,30,06,00,10.10
2007,09,30,06,01,8.90
2007,09,30,06,02,7.60
2007,09,30,06,03,15.50
2007,09,30,06,04,18.60
2007,09,30,06,05,9.50
2007,09,30,06,06,4.80
2007,09,30,06,07,7.00
2007,09,30,06,08,13.40
2007,09,30,06,09,7.70
2007,09,30,06,10,6.00
2007,09,30,06,11,5.20
2007,09,30,06,12,7.10
2007,09,30,06,13,3.80
2007,09,30,06,14,6.10
2007,09,30,06,15,3.90
2007,09,30,06,16,10.80
2007,09,30,06,17,8.60
2007,09,30,06,18,4.00
2007,09,30,06,19,10.60
2007,09,30,06,20,13.80
2007,09,30,06,21,11.40
2007,09,30,06,22,7.90
2007,09,30,06,23,6.90
2007,09,30,06,24,13.30
2007,09,30,06,25,8.60
2007,09,30,06,26,17.80
2007,09,30,06,27,12.10
2007,09,30,06,28,13.00
2007,09,30,06,29,9.90
2007,09,30,06,30,12.00
2007,09,30,06,31,9.90
2007,09,30,06,32,17.20
2007,09,30,06,33,14.10
2007,09,30,06,34,16.10
2007,09,30,06,35,18.40
2007,09,30,06,36,15.50
2007,09,30,06,37,13.40
2007,09,30,06,38,13.30
2007,09,30,06,39,16.70
2007,09,30,06,40,11.20
2007,09,30,06,41,13.50
2007,09,30,06,42,12.30
2007,09,30,06,43,10.60
2007,09,30,06,44,6.00
2007,09,30,06,45,11.30
2007,09,30,06,46,8.40
2007,09,30,06,47,8.20
2007,09,30,06,48,5.90
2007,09,30,06,49,4.00
2007,09,30,06,50,6.00
2007,09,30,06,51,5.20
2007,09,30,06,52,4.30
2007,09,30,06,53,8.70
2007,09,30,06,54,4.90
2007,09,30,06,55,5.50
2007,09,30,06,56,3.10
2007,09,30,06,57,4.40
2007,09,30,06,58,6.40
2007,09,30,06,59,4.90
2007,09,30,07,00,8.50
2007,09,30,07,01,8.00
2007,09,30,07,02,6.00
2007,09,30,07,03,9.20
2007,09,30,07,04,6.20
2007,09,30,07,05,8.10
2007,09,30,07,06,2.90
2007,09,30,07,07,8.30
2007,09,30,07,08,6.80
2007,09,30,07,09,5.10
2007,09,30,07,10,3.80
2007,09,30,07,11,7.70
2007,09,30,07,12,5.50
2007,09,30,07,13,11.30
2007,09,30,07,14,17.90
2007,09,30,07,15,11.80
2007,09,30,07,16,11.00
2007,09,30,07,17,7.30
2007,09,30,07,18,13.10
2007,09,30,07,19,11.10
2007,09,30,07,20,9.30
2007,09,30,07,21,16.60
2007,09,30,07,22,16.80
2007,09,30,07,23,15.70
2007,09,30,07,24,16.30
2007,09,30,07,25,23.90
2007,09,30,07,26,14.80
2007,09,30,07,27,8.50
2007,09,30,07,28,11.40
2007,09,30,07,29,12.30
2007,09,30,07,30,12.90
2007,09,30,07,31,9.40
2007,09,30,07,32,12.60
2007,09,30,07,33,9.60
2007,09,30,07,34,12.50
2007,09,30,07,35,14.90
2007,09,30,07,36,9.30
2007,09,30,07,37,9.70
2007,09,30,07,38,15.80
2007,09,30,07,39,17.70
2007,09,30,07,40,17.70
2007,09,30,07,41,13.30
2007,09,30,07,42,11.80
2007,09,30,07,43,10.20
2007,09,30,07,44,10.10
2007,09,30,07,45,7.80
2007,09,30,07,46,7.90
2007,09,30,07,47,5.00
2007,09,30,07,48,4.40
2007,09,30,07,49,13.90
2007,09,30,07,50,11.20
2007,09,30,07,51,8.70
2007,09,30,07,52,8.30
2007,09,30,07,53,7.10
2007,09,30,07,54,8.60
2007,09,30,07,55,8.40
2007,09,30,07,56,8.50
2007,09,30,07,57,8.20
2007,09,30,07,58,9.50
2007,09,30,07,59,11.50
2007,09,30,08,00,4.30
2007,09,30,08,01,5.80
2007,09,30,08,02,11.20
2007,09,30,08,03,13.70
2007,09,30,08,04,7.80
2007,09,30,08,05,7.60
2007,09,30,08,06,5.70
2007,09,30,08,07,2.50
2007,09,30,08,08,4.80
2007,09,30,08,09,3.60
2007,09,30,08,10,12.70
2007,09,30,08,11,8.30
2007,09,30,08,12,5.80
2007,09,30,08,13,6.40
2007,09,30,08,14,8.80
2007,09,30,08,15,6.90
2007,09,30,08,16,9.70
2007,09,30,08,17,5.60
2007,09,30,08,18,8.80
2007,09,30,08,19,5.60
2007,09,30,08,20,7.00
2007,09,30,08,21,8.60
2007,09,30,08,22,9.10
2007,09,30,08,23,4.60
2007,09,30,08,24,4.80
2007,09,30,08,25,7.80
2007,09,30,08,26,6.40
2007,09,30,08,27,7.70
2007,09,30,08,28,9.50
2007,09,30,08,29,7.80
2007,09,30,08,30,6.00
2007,09,30,08,31,11.30
2007,09,30,08,32,8.90
2007,09,30,08,33,7.50
2007,09,30,08,34,10.40
2007,09,30,08,35,12.90
2007,09,30,08,36,8.20
2007,09,30,08,37,11.80
2007,09,30,08,38,11.50
2007,09,30,08,39,12.70
2007,09,30,08,40,17.10
2007,09,30,08,41,8.30
2007,09,30,08,42,12.10
2007,09,30,08,43,9.30
2007,09,30,08,44,10.00
2007,09,30,08,45,10.90
2007,09,30,08,46,7.70
2007,09,30,08,47,5.50
2007,09,30,08,48,10.60
2007,09,30,08,49,6.70
2007,09,30,08,50,13.90
2007,09,30,08,51,16.40
2007,09,30,08,52,7.50
2007,09,30,08,53,9.80
2007,09,30,08,54,18.70
2007,09,30,08,55,13.50
2007,09,30,08,56,9.80
2007,09,30,08,57,11.00
2007,09,30,08,58,9.80
2007,09,30,08,59,11.50
2007,09,30,09,00,14.00
2007,09,30,09,01,15.60
2007,09,30,09,02,17.50
2007,09,30,09,03,8.50
2007,09,30,09,04,9.00
2007,09,30,09,05,5.80
2007,09,30,09,06,8.70
2007,09,30,09,07,13.50
2007,09,30,09,08,9.20
2007,09,30,09,09,13.40
2007,09,30,09,10,11.00
2007,09,30,09,11,6.70
2007,09,30,09,12,10.80
2007,09,30,09,13,8.70
2007,09,30,09,14,11.50
2007,09,30,09,15,11.50
2007,09,30,09,16,6.00
2007,09,30,09,17,8.20
2007,09,30,09,18,9.70
2007,09,30,09,19,11.40
2007,09,30,09,20,11.30
2007,09,30,09,21,10.70
2007,09,30,09,22,7.60
2007,09,30,09,23,8.70
2007,09,30,09,24,6.70
2007,09,30,09,25,8.80
2007,09,30,09,26,10.60
2007,09,30,09,27,9.10
2007,09,30,09,28,8.90
2007,09,30,09,29,10.80
2007,09,30,09,30,11.90
2007,09,30,09,31,10.80
2007,09,30,09,32,11.40
2007,09,30,09,33,12.50
2007,09,30,09,34,10.80
2007,09,30,09,35,11.20
2007,09,30,09,36,10.20
2007,09,30,09,37,7.70
2007,09,30,09,38,18.90
2007,09,30,09,39,20.90
2007,09,30,09,40,12.50
2007,09,30,09,41,16.60
2007,09,30,09,42,14.00
2007,09,30,09,43,17.30
2007,09,30,09,44,13.50
2007,09,30,09,45,7.10
2007,09,30,09,46,10.80
2007,09,30,09,47,11.50
2007,09,30,09,48,12.30
2007,09,30,09,49,9.30
2007,09,30,09,50,11.60
2007,09,30,09,51,11.40
2007,09,30,09,52,12.50
2007,09,30,09,53,20.20
2007,09,30,09,54,15.00
2007,09,30,09,55,13.40
2007,09,30,09,56,17.40
2007,09,30,09,57,20.70
2007,09,30,09,58,11.20
2007,09,30,09,59,13.00
2007,09,30,10,00,12.00
2007,09,30,10,01,12.10
2007,09,30,10,02,15.20
2007,09,30,10,03,10.90
2007,09,30,10,04,14.20
2007,09,30,10,05,11.40
2007,09,30,10,06,12.20
2007,09,30,10,07,14.20
2007,09,30,10,08,11.00
2007,09,30,10,09,11.40
2007,09,30,10,10,18.80
2007,09,30,10,11,10.50
2007,09,30,10,12,14.80
2007,09,30,10,13,13.40
2007,09,30,10,14,14.20
2007,09,30,10,15,15.40
2007,09,30,10,16,11.80
2007,09,30,10,17,13.60
2007,09,30,10,18,8.10
2007,09,30,10,19,10.90
2007,09,30,10,20,19.70
2007,09,30,10,21,12.30
2007,09,30,10,22,15.60
2007,09,30,10,23,11.70
2007,09,30,10,24,16.40
2007,09,30,10,25,20.00
2007,09,30,10,26,16.10
2007,09,30,10,27,19.60
2007,09,30,10,28,18.30
2007,09,30,10,29,19.50
2007,09,30,10,30,13.10
2007,09,30,10,31,15.30
2007,09,30,10,32,14.30
2007,09,30,10,33,11.60
2007,09,30,10,34,15.90
2007,09,30,10,35,15.20
2007,09,30,10,36,13.40
2007,09,30,10,37,19.10
2007,09,30,10,38,12.30
2007,09,30,10,39,15.00
2007,09,30,10,40,15.60
2007,09,30,10,41,15.50
2007,09,30,10,42,8.20
2007,09,30,10,43,9.40
2007,09,30,10,44,11.60
2007,09,30,10,45,10.80
2007,09,30,10,46,14.10
2007,09,30,10,47,15.00
2007,09,30,10,48,13.60
2007,09,30,10,49,11.50
2007,09,30,10,50,14.30
2007,09,30,10,51,16.40
2007,09,30,10,52,13.40
2007,09,30,10,53,13.00
2007,09,30,10,54,8.80
2007,09,30,10,55,9.70
2007,09,30,10,56,15.80
2007,09,30,10,57,9.10
2007,09,30,10,58,14.70
2007,09,30,10,59,16.60
2007,09,30,11,00,16.50
2007,09,30,11,01,10.30
2007,09,30,11,02,8.40
2007,09,30,11,03,9.10
2007,09,30,11,04,13.10
2007,09,30,11,05,15.30
2007,09,30,11,06,13.40
2007,09,30,11,07,12.30
2007,09,30,11,08,12.80
2007,09,30,11,09,11.80
2007,09,30,11,10,18.60
2007,09,30,11,11,20.40
2007,09,30,11,12,12.00
2007,09,30,11,13,9.80
2007,09,30,11,14,12.40
2007,09,30,11,15,12.80
2007,09,30,11,16,11.10
2007,09,30,11,17,11.90
2007,09,30,11,18,11.00
2007,09,30,11,19,19.70
2007,09,30,11,20,16.90
2007,09,30,11,21,14.90
2007,09,30,11,22,15.70
2007,09,30,11,23,18.20
2007,09,30,11,24,16.50
2007,09,30,11,25,13.60
2007,09,30,11,26,19.60
2007,09,30,11,27,14.80
2007,09,30,11,28,22.50
2007,09,30,11,29,15.70
2007,09,30,11,30,17.20
2007,09,30,11,31,12.90
2007,09,30,11,32,14.80
2007,09,30,11,33,20.10
2007,09,30,11,34,17.30
2007,09,30,11,35,17.30
2007,09,30,11,36,15.40
2007,09,30,11,37,21.70
2007,09,30,11,38,14.80
2007,09,30,11,39,19.30
2007,09,30,11,40,15.20
2007,09,30,11,41,18.90
2007,09,30,11,42,13.00
2007,09,30,11,43,20.30
2007,09,30,11,44,22.50
2007,09,30,11,45,19.20
2007,09,30,11,46,15.00
2007,09,30,11,47,16.60
2007,09,30,11,48,15.90
2007,09,30,11,49,12.60
2007,09,30,11,50,20.90
2007,09,30,11,51,20.60
2007,09,30,11,52,21.50
2007,09,30,11,53,16.20
2007,09,30,11,54,16.80
2007,09,30,11,55,16.80
2007,09,30,11,56,12.30
2007,09,30,11,57,12.60
2007,09,30,11,58,16.90
2007,09,30,11,59,14.60
2007,09,30,12,00,22.00
2007,09,30,12,01,21.30
2007,09,30,12,02,18.40
2007,09,30,12,03,20.10
2007,09,30,12,04,19.90
2007,09,30,12,05,13.20
2007,09,30,12,06,17.50
2007,09,30,12,07,13.30
2007,09,30,12,08,15.80
2007,09,30,12,09,17.30
2007,09,30,12,10,16.40
2007,09,30,12,11,17.00
2007,09,30,12,12,22.30
2007,09,30,12,13,17.40
2007,09,30,12,14,16.90
2007,09,30,12,15,12.50
2007,09,30,12,16,19.70
2007,09,30,12,17,16.90
2007,09,30,12,18,20.30
2007,09,30,12,19,15.20
2007,09,30,12,20,22.20
2007,09,30,12,21,15.20
2007,09,30,12,22,11.50
2007,09,30,12,23,20.60
2007,09,30,12,24,19.90
2007,09,30,12,25,13.70
2007,09,30,12,26,19.20
2007,09,30,12,27,13.90
2007,09,30,12,28,11.20
2007,09,30,12,29,23.40
2007,09,30,12,30,18.20
2007,09,30,12,31,22.70
2007,09,30,12,32,15.30
2007,09,30,12,33,16.90
2007,09,30,12,34,14.20
2007,09,30,12,35,19.30
2007,09,30,12,36,17.90
2007,09,30,12,37,16.80
2007,09,30,12,38,21.40
2007,09,30,12,39,19.20
2007,09,30,12,40,12.00
2007,09,30,12,41,18.00
2007,09,30,12,42,16.20
2007,09,30,12,43,21.50
2007,09,30,12,44,17.60
2007,09,30,12,45,18.30
2007,09,30,12,46,15.10
2007,09,30,12,47,14.80
2007,09,30,12,48,14.90
2007,09,30,12,49,13.90
2007,09,30,12,50,13.60
2007,09,30,12,51,14.70
2007,09,30,12,52,18.10
2007,09,30,12,53,21.80
2007,09,30,12,54,13.90
2007,09,30,12,55,17.60
2007,09,30,12,56,22.00
2007,09,30,12,57,17.30
2007,09,30,12,58,14.90
2007,09,30,12,59,11.40
2007,09,30,13,00,15.70
2007,09,30,13,01,16.40
2007,09,30,13,02,11.70
2007,09,30,13,03,18.20
2007,09,30,13,04,15.50
2007,09,30,13,05,19.70
2007,09,30,13,06,18.00
2007,09,30,13,07,14.30
2007,09,30,13,08,15.30
2007,09,30,13,09,8.80
2007,09,30,13,10,17.40
2007,09,30,13,11,13.30
2007,09,30,13,12,8.00
2007,09,30,13,13,18.20
2007,09,30,13,14,17.00
2007,09,30,13,15,12.90
2007,09,30,13,16,17.30
2007,09,30,13,17,15.60
2007,09,30,13,18,15.70
2007,09,30,13,19,13.60
2007,09,30,13,20,13.00
2007,09,30,13,21,13.80
2007,09,30,13,22,15.70
2007,09,30,13,23,18.90
2007,09,30,13,24,13.10
2007,09,30,13,25,15.10
2007,09,30,13,26,13.00
2007,09,30,13,27,15.70
2007,09,30,13,28,11.30
2007,09,30,13,29,14.20
2007,09,30,13,30,10.90
2007,09,30,13,31,17.70
2007,09,30,13,32,18.20
2007,09,30,13,33,14.00
2007,09,30,13,34,13.60
2007,09,30,13,35,19.30
2007,09,30,13,36,15.20
2007,09,30,13,37,10.30
2007,09,30,13,38,13.90
2007,09,30,13,39,11.20
2007,09,30,13,40,12.30
2007,09,30,13,41,15.20
2007,09,30,13,42,12.80
2007,09,30,13,43,17.70
2007,09,30,13,44,14.60
2007,09,30,13,45,13.60
2007,09,30,13,46,14.10
2007,09,30,13,47,11.20
2007,09,30,13,48,14.30
2007,09,30,13,49,13.10
2007,09,30,13,50,20.40
2007,09,30,13,51,20.20
2007,09,30,13,52,17.80
2007,09,30,13,53,13.30
2007,09,30,13,54,12.40
2007,09,30,13,55,16.30
2007,09,30,13,56,14.40
2007,09,30,13,57,8.10
2007,09,30,13,58,15.70
2007,09,30,13,59,15.60
2007,09,30,14,00,18.80
2007,09,30,14,01,11.80
2007,09,30,14,02,19.80
2007,09,30,14,03,18.30
2007,09,30,14,04,13.80
2007,09,30,14,05,18.00
2007,09,30,14,06,11.50
2007,09,30,14,07,12.40
2007,09,30,14,08,20.00
2007,09,30,14,09,9.50
2007,09,30,14,10,11.80
2007,09,30,14,11,12.40
2007,09,30,14,12,11.00
2007,09,30,14,13,10.90
2007,09,30,14,14,11.80
2007,09,30,14,15,12.80
2007,09,30,14,16,12.20
2007,09,30,14,17,11.50
2007,09,30,14,18,16.50
2007,09,30,14,19,15.70
2007,09,30,14,20,11.40
2007,09,30,14,21,9.70
2007,09,30,14,22,12.80
2007,09,30,14,23,9.70
2007,09,30,14,24,16.90
2007,09,30,14,25,18.40
2007,09,30,14,26,14.50
2007,09,30,14,27,10.20
2007,09,30,14,28,13.80
2007,09,30,14,29,9.80
2007,09,30,14,30,7.90
2007,09,30,14,31,11.50
2007,09,30,14,32,14.80
2007,09,30,14,33,11.20
2007,09,30,14,34,11.50
2007,09,30,14,35,14.90
2007,09,30,14,36,16.30
2007,09,30,14,37,16.90
2007,09,30,14,38,12.80
2007,09,30,14,39,6.80
2007,09,30,14,40,11.60
2007,09,30,14,41,6.90
2007,09,30,14,42,12.20
2007,09,30,14,43,12.50
2007,09,30,14,44,9.00
2007,09,30,14,45,10.30
2007,09,30,14,46,11.80
2007,09,30,14,47,14.10
2007,09,30,14,48,9.00
2007,09,30,14,49,8.30
2007,09,30,14,50,11.40
2007,09,30,14,51,10.80
2007,09,30,14,52,11.30
2007,09,30,14,53,10.50
2007,09,30,14,54,14.10
2007,09,30,14,55,6.90
2007,09,30,14,56,7.00
2007,09,30,14,57,11.80
2007,09,30,14,58,15.90
2007,09,30,14,59,13.00
2007,09,30,15,00,12.20
2007,09,30,15,01,10.60
2007,09,30,15,02,12.70
2007,09,30,15,03,9.90
2007,09,30,15,04,11.60
2007,09,30,15,05,9.10
2007,09,30,15,06,12.80
2007,09,30,15,07,8.10
2007,09,30,15,08,7.00
2007,09,30,15,09,16.90
2007,09,30,15,10,12.20
2007,09,30,15,11,11.80
2007,09,30,15,12,8.50
2007,09,30,15,13,8.70
2007,09,30,15,14,6.70
2007,09,30,15,15,7.40
2007,09,30,15,16,6.40
2007,09,30,15,17,6.40
2007,09,30,15,18,13.80
2007,09,30,15,19,8.00
2007,09,30,15,20,9.40
2007,09,30,15,21,11.00
2007,09,30,15,22,11.40
2007,09,30,15,23,13.70
2007,09,30,15,24,12.00
2007,09,30,15,25,13.60
2007,09,30,15,26,20.80
2007,09,30,15,27,21.90
2007,09,30,15,28,8.80
2007,09,30,15,29,11.50
2007,09,30,15,30,9.30
2007,09,30,15,31,10.80
2007,09,30,15,32,17.90
2007,09,30,15,33,16.50
2007,09,30,15,34,15.90
2007,09,30,15,35,13.70
2007,09,30,15,36,12.90
2007,09,30,15,37,17.90
2007,09,30,15,38,11.80
2007,09,30,15,39,12.90
2007,09,30,15,40,12.30
2007,09,30,15,41,13.70
2007,09,30,15,42,14.30
2007,09,30,15,43,11.60
2007,09,30,15,44,10.20
2007,09,30,15,45,7.70
2007,09,30,15,46,9.30
2007,09,30,15,47,11.30
2007,09,30,15,48,16.20
2007,09,30,15,49,8.80
2007,09,30,15,50,9.20
2007,09,30,15,51,12.30
2007,09,30,15,52,11.40
2007,09,30,15,53,14.10
2007,09,30,15,54,13.60
2007,09,30,15,55,18.40
2007,09,30,15,56,17.40
2007,09,30,15,57,16.80
2007,09,30,15,58,12.40
2007,09,30,15,59,13.60
2007,09,30,16,00,16.70
2007,09,30,16,01,16.90
2007,09,30,16,02,19.40
2007,09,30,16,03,12.50
2007,09,30,16,04,10.50
2007,09,30,16,05,7.00
2007,09,30,16,06,13.60
2007,09,30,16,07,10.10
2007,09,30,16,08,8.60
2007,09,30,16,09,10.60
2007,09,30,16,10,14.80
2007,09,30,16,11,10.30
2007,09,30,16,12,12.20
2007,09,30,16,13,6.30
2007,09,30,16,14,8.00
2007,09,30,16,15,4.80
2007,09,30,16,16,5.30
2007,09,30,16,17,2.70
2007,09,30,16,18,7.80
2007,09,30,16,19,4.40
2007,09,30,16,20,4.80
2007,09,30,16,21,5.00
2007,09,30,16,22,4.40
2007,09,30,16,23,3.90
2007,09,30,16,24,3.30
2007,09,30,16,25,2.80
2007,09,30,16,26,6.70
2007,09,30,16,27,4.90
2007,09,30,16,28,5.00
2007,09,30,16,29,7.10
2007,09,30,16,30,3.80
2007,09,30,16,31,3.80
2007,09,30,16,32,1.40
2007,09,30,16,33,1.80
2007,09,30,16,34,2.70
2007,09,30,16,35,0.00
2007,09,30,16,36,0.00
2007,09,30,16,37,0.60
2007,09,30,16,38,1.30
2007,09,30,16,39,1.50
2007,09,30,16,40,0.30
2007,09,30,16,41,0.00
2007,09,30,16,42,0.10
2007,09,30,16,43,0.60
2007,09,30,16,44,1.90
2007,09,30,16,45,0.70
2007,09,30,16,46,0.00
2007,09,30,16,47,0.00
2007,09,30,16,48,0.10
2007,09,30,16,49,0.00
2007,09,30,16,50,0.00
2007,09,30,16,51,0.00
2007,09,30,16,52,0.00
2007,09,30,16,53,0.00
2007,09,30,16,54,0.00
2007,09,30,16,55,0.00
2007,09,30,16,56,0.00
2007,09,30,16,57,0.00
2007,09,30,16,58,0.00
2007,09,30,16,59,0.00
2007,09,30,17,00,0.00
2007,09,30,17,01,0.00
2007,09,30,17,02,0.00
2007,09,30,17,03,0.00
2007,09,30,17,04,0.00
2007,09,30,17,05,0.00
2007,09,30,17,06,0.00
2007,09,30,17,07,0.00
2007,09,30,17,08,0.00
2007,09,30,17,09,0.00
2007,09,30,17,10,0.00
2007,09,30,17,11,0.00
2007,09,30,17,12,0.00
2007,09,30,17,13,0.10
2007,09,30,17,14,0.00
2007,09,30,17,15,0.00
2007,09,30,17,16,0.00
2007,09,30,17,17,0.10
2007,09,30,17,18,0.10
2007,09,30,17,19,0.00
2007,09,30,17,20,0.50
2007,09,30,17,21,0.30
2007,09,30,17,22,0.00
2007,09,30,17,23,0.40
2007,09,30,17,24,0.00
2007,09,30,17,25,0.00
2007,09,30,17,26,0.00
2007,09,30,17,27,0.00
2007,09,30,17,28,0.40
2007,09,30,17,29,0.80
2007,09,30,17,30,0.20
2007,09,30,17,31,1.80
2007,09,30,17,32,0.40